| time (UTC) | temp C | wind direction | speed KPH | gust KPH | rain 1hr cm | rain 24hr cm | rain mn cm | humidity % | barometer mb |
| 20260505214040 | 15 | 248 | 0.0 | 0.0 | 0.00 | 0.00 | 0.10 | 51 | 1010.2 |
| 20260505213525 | 15 | 248 | 0.0 | 0.0 | 0.00 | 0.00 | 0.10 | 50 | 1010.1 |
| 20260505213018 | 15 | 248 | 3.2 | 0.0 | 0.00 | 0.00 | 0.10 | 49 | 1010.0 |
| 20260505212554 | 15 | 248 | 3.2 | 0.0 | 0.00 | 0.00 | 0.10 | 49 | 1010.0 |
| 20260505212033 | 15 | 249 | 4.8 | 0.0 | 0.00 | 0.00 | 0.10 | 50 | 1009.9 |
| 20260505211514 | 15 | 261 | 4.8 | 0.0 | 0.00 | 0.00 | 0.10 | 50 | 1010.1 |
| 20260505211056 | 15 | 261 | 3.2 | 0.0 | 0.00 | 0.00 | 0.10 | 50 | 1010.0 |
| 20260505210536 | 15 | 260 | 1.6 | 0.0 | 0.00 | 0.00 | 0.10 | 51 | 1010.1 |
| 20260505210022 | 15 | 137 | 1.6 | 0.0 | 0.00 | 0.00 | 0.10 | 51 | 1010.0 |
| 20260505205502 | 15 | 294 | 0.0 | 0.0 | 0.00 | 0.00 | 0.10 | 50 | 1009.9 |
| 20260505205046 | 15 | 280 | 0.0 | 0.0 | 0.00 | 0.00 | 0.10 | 52 | 1009.9 |
| 20260505204528 | 15 | 279 | 0.0 | 0.0 | 0.00 | 0.00 | 0.10 | 52 | 1009.9 |
| 20260505204015 | 15 | 269 | 0.0 | 0.0 | 0.00 | 0.00 | 0.10 | 52 | 1010.1 |
| 20260505203555 | 15 | 196 | 1.6 | 0.0 | 0.00 | 0.00 | 0.10 | 52 | 1010.1 |
| 20260505203038 | 15 | 196 | 3.2 | 0.0 | 0.00 | 0.00 | 0.10 | 53 | 1010.2 |
| 20260505202523 | 15 | 184 | 4.8 | 0.0 | 0.00 | 0.00 | 0.10 | 53 | 1010.3 |
| 20260505202104 | 15 | 257 | 3.2 | 0.0 | 0.00 | 0.00 | 0.10 | 52 | 1010.1 |
| 20260505201554 | 15 | 262 | 0.0 | 0.0 | 0.00 | 0.00 | 0.10 | 56 | 1010.0 |
| 20260505201033 | 15 | 240 | 1.6 | 0.0 | 0.00 | 0.00 | 0.10 | 60 | 1010.1 |
| 20260505200519 | 13 | 240 | 1.6 | 0.0 | 0.00 | 0.00 | 0.10 | 59 | 1010.1 |
| 20260505200004 | 13 | 241 | 0.0 | 0.0 | 0.00 | 0.00 | 0.10 | 61 | 1010.3 |
| 20260505195552 | 13 | 241 | 0.0 | 0.0 | 0.00 | 0.00 | 0.10 | 63 | 1010.3 |
| 20260505195037 | 13 | 238 | 0.0 | 0.0 | 0.00 | 0.00 | 0.10 | 63 | 1010.5 |
| 20260505194522 | 13 | 238 | 1.6 | 0.0 | 0.00 | 0.00 | 0.10 | 64 | 1010.5 |
| 20260505194007 | 12 | 239 | 1.6 | 0.0 | 0.00 | 0.00 | 0.10 | 65 | 1010.5 |
| 20260505193556 | 12 | 239 | 1.6 | 0.0 | 0.00 | 0.00 | 0.10 | 68 | 1010.6 |
| 20260505193041 | 12 | 195 | 3.2 | 0.0 | 0.00 | 0.00 | 0.10 | 68 | 1010.6 |
| 20260505192529 | 12 | 198 | 1.6 | 0.0 | 0.00 | 0.00 | 0.10 | 69 | 1010.7 |
| 20260505192014 | 12 | 196 | 3.2 | 0.0 | 0.00 | 0.00 | 0.10 | 71 | 1010.8 |
| 20260505191606 | 12 | 202 | 4.8 | 0.0 | 0.00 | 0.00 | 0.10 | 72 | 1010.8 |
| 20260505191039 | 12 | 257 | 3.2 | 0.0 | 0.00 | 0.00 | 0.10 | 74 | 1010.8 |
| 20260505190519 | 12 | 238 | 0.0 | 0.0 | 0.00 | 0.00 | 0.10 | 75 | 1010.8 |
| 20260505190106 | 12 | 244 | 0.0 | 0.0 | 0.00 | 0.00 | 0.10 | 75 | 1010.8 |
| 20260505185541 | 12 | 244 | 0.0 | 0.0 | 0.00 | 0.00 | 0.08 | 72 | 1010.8 |
| 20260505185020 | 12 | 256 | 1.6 | 0.0 | 0.00 | 0.00 | 0.08 | 72 | 1010.9 |
| 20260505184502 | 12 | 256 | 4.8 | 0.0 | 0.00 | 0.00 | 0.08 | 68 | 1010.9 |
| 20260505184046 | 13 | 256 | 4.8 | 0.0 | 0.00 | 0.00 | 0.08 | 65 | 1011.0 |
| 20260505183526 | 13 | 205 | 6.4 | 0.0 | 0.00 | 0.00 | 0.05 | 60 | 1011.0 |
| 20260505183006 | 15 | 201 | 6.4 | 0.0 | 0.00 | 0.00 | 0.00 | 55 | 1010.9 |
| 20260505182549 | 15 | 191 | 3.2 | 0.0 | 0.00 | 0.00 | 0.00 | 50 | 1010.7 |
| 20260505182030 | 15 | 196 | 3.2 | 0.0 | 0.00 | 0.00 | 0.00 | 48 | 1010.6 |
| 20260505181516 | 16 | 227 | 4.8 | 0.0 | 0.00 | 0.00 | 0.00 | 49 | 1010.7 |
| 20260505181102 | 16 | 221 | 6.4 | 0.0 | 0.00 | 0.00 | 0.00 | 46 | 1010.6 |
| 20260505180539 | 16 | 221 | 3.2 | 0.0 | 0.00 | 0.00 | 0.00 | 43 | 1010.6 |
| 20260505180020 | 17 | 203 | 0.0 | 0.0 | 0.00 | 0.00 | 0.00 | 41 | 1010.6 |
| 20260505175503 | 17 | 250 | 0.0 | 0.0 | 0.00 | 0.00 | 0.00 | 40 | 1010.6 |
| 20260505175048 | 17 | 100 | 0.0 | 0.0 | 0.00 | 0.00 | 0.00 | 41 | 1010.5 |
| 20260505174530 | 17 | 293 | 0.0 | 0.0 | 0.00 | 0.00 | 0.00 | 43 | 1010.5 |
| 20260505174012 | 16 | 291 | 0.0 | 0.0 | 0.00 | 0.00 | 0.00 | 44 | 1010.5 |
| 20260505173554 | 16 | 291 | 0.0 | 0.0 | 0.00 | 0.00 | 0.00 | 44 | 1010.5 |
| 20260505173042 | 15 | 291 | 0.0 | 0.0 | 0.00 | 0.00 | 0.00 | 45 | 1010.5 |
| 20260505172514 | 15 | 292 | 0.0 | 0.0 | 0.00 | 0.00 | 0.00 | 46 | 1010.5 |
| 20260505172057 | 15 | 291 | 0.0 | 0.0 | 0.00 | 0.00 | 0.00 | 46 | 1010.5 |
| 20260505171545 | 14 | 292 | 0.0 | 0.0 | 0.00 | 0.00 | 0.00 | 47 | 1010.6 |
| 20260505171020 | 13 | 291 | 0.0 | 0.0 | 0.00 | 0.00 | 0.00 | 48 | 1010.6 |
| 20260505170500 | 13 | 292 | 0.0 | 0.0 | 0.00 | 0.00 | 0.00 | 50 | 1010.7 |
| 20260505170044 | 13 | 292 | 0.0 | 0.0 | 0.00 | 0.00 | 0.00 | 50 | 1011.0 |
| 20260505165527 | 12 | 291 | 0.0 | 0.0 | 0.00 | 0.00 | 0.00 | 50 | 1010.9 |
| 20260505165005 | 12 | 292 | 0.0 | 0.0 | 0.00 | 0.00 | 0.00 | 51 | 1010.7 |
| 20260505164550 | 12 | 286 | 0.0 | 0.0 | 0.00 | 0.00 | 0.00 | 51 | 1010.6 |
| 20260505164030 | 12 | 318 | 0.0 | 0.0 | 0.00 | 0.00 | 0.00 | 52 | 1010.6 |
| 20260505163512 | 12 | 322 | 0.0 | 0.0 | 0.00 | 0.00 | 0.00 | 52 | 1010.9 |
| 20260505163055 | 12 | 299 | 0.0 | 0.0 | 0.00 | 0.00 | 0.00 | 52 | 1010.9 |
| 20260505162535 | 11 | 341 | 0.0 | 0.0 | 0.00 | 0.00 | 0.00 | 54 | 1010.8 |
| 20260505162017 | 11 | 331 | 0.0 | 0.0 | 0.00 | 0.00 | 0.00 | 55 | 1010.9 |
| 20260505161626 | 11 | 315 | 0.0 | 0.0 | 0.00 | 0.00 | 0.00 | 56 | 1011.0 |
| 20260505161043 | 11 | 277 | 0.0 | 0.0 | 0.00 | 0.00 | 0.00 | 57 | 1011.1 |
| 20260505160527 | 11 | 317 | 0.0 | 0.0 | 0.00 | 0.00 | 0.00 | 59 | 1011.0 |
| 20260505153016 | 11 | 286 | 6.4 | 0.0 | 0.00 | 0.00 | 0.00 | 58 | 1011.3 |
| 20260505152501 | 11 | 284 | 3.2 | 0.0 | 0.00 | 0.00 | 0.00 | 58 | 1011.4 |
| 20260505152048 | 11 | 301 | 1.6 | 0.0 | 0.00 | 0.00 | 0.00 | 59 | 1011.4 |
| 20260505151534 | 11 | 296 | 1.6 | 0.0 | 0.00 | 0.00 | 0.00 | 60 | 1011.4 |
| 20260505151008 | 11 | 329 | 3.2 | 0.0 | 0.00 | 0.00 | 0.00 | 61 | 1011.3 |
| 20260505150553 | 11 | 338 | 4.8 | 0.0 | 0.00 | 0.00 | 0.00 | 62 | 1011.4 |
| 20260505140527 | 12 | 329 | 6.4 | 0.0 | 0.00 | 0.00 | 0.00 | 52 | 1011.4 |
| 20260505124530 | 13 | 245 | 0.0 | 0.0 | 0.00 | 0.00 | 0.00 | 47 | 1010.1 |
| 20260505124014 | 13 | 245 | 0.0 | 0.0 | 0.00 | 0.00 | 0.00 | 47 | 1010.4 |
| 20260505123502 | 13 | 245 | 0.0 | 0.0 | 0.00 | 0.00 | 0.00 | 46 | 1010.3 |
| 20260505123048 | 13 | 245 | 0.0 | 0.0 | 0.00 | 0.00 | 0.00 | 46 | 1010.4 |
| 20260505122536 | 13 | 245 | 0.0 | 0.0 | 0.00 | 0.00 | 0.00 | 45 | 1010.4 |
| 20260505122023 | 13 | 245 | 0.0 | 0.0 | 0.00 | 0.00 | 0.00 | 45 | 1010.4 |
| 20260505121512 | 13 | 245 | 0.0 | 0.0 | 0.00 | 0.00 | 0.00 | 44 | 1010.4 |
| 20260505121057 | 13 | 245 | 0.0 | 0.0 | 0.00 | 0.00 | 0.00 | 44 | 1010.4 |
| 20260505120539 | 13 | 238 | 0.0 | 0.0 | 0.00 | 0.00 | 0.00 | 43 | 1010.4 |
| 20260505120045 | 13 | 237 | 0.0 | 0.0 | 0.00 | 0.00 | 0.00 | 42 | 1010.3 |
| 20260505115501 | 13 | 237 | 0.0 | 0.0 | 0.00 | 0.00 | 0.00 | 42 | 1010.2 |
| 20260505115055 | 13 | 238 | 0.0 | 0.0 | 0.00 | 0.00 | 0.00 | 42 | 1010.2 |
| 20260505114537 | 13 | 237 | 0.0 | 0.0 | 0.00 | 0.00 | 0.00 | 41 | 1010.2 |
| 20260505114023 | 13 | 237 | 0.0 | 0.0 | 0.00 | 0.00 | 0.00 | 40 | 1010.0 |
| 20260505113513 | 13 | 238 | 0.0 | 0.0 | 0.00 | 0.00 | 0.00 | 40 | 1010.0 |
| 20260505113101 | 13 | 238 | 0.0 | 0.0 | 0.00 | 0.00 | 0.00 | 40 | 1010.1 |
| 20260505112547 | 13 | 238 | 0.0 | 0.0 | 0.00 | 0.00 | 0.00 | 39 | 1010.0 |
| 20260505112033 | 13 | 237 | 0.0 | 0.0 | 0.00 | 0.00 | 0.00 | 39 | 1010.0 |
| 20260505111516 | 13 | 238 | 0.0 | 0.0 | 0.00 | 0.00 | 0.00 | 39 | 1009.9 |
| 20260505111006 | 13 | 238 | 0.0 | 0.0 | 0.00 | 0.00 | 0.00 | 38 | 1010.2 |
| 20260505110551 | 13 | 237 | 0.0 | 0.0 | 0.00 | 0.00 | 0.00 | 38 | 1010.3 |
| 20260505102048 | 13 | 259 | 0.0 | 0.0 | 0.00 | 0.00 | 0.00 | 38 | 1010.3 |
| 20260505101534 | 13 | 259 | 0.0 | 0.0 | 0.00 | 0.00 | 0.00 | 38 | 1010.3 |
| 20260505101018 | 13 | 259 | 0.0 | 0.0 | 0.00 | 0.00 | 0.00 | 38 | 1010.1 |
| 20260505100503 | 13 | 259 | 0.0 | 0.0 | 0.00 | 0.00 | 0.00 | 38 | 1010.0 |
| 20260505100053 | 13 | 259 | 0.0 | 0.0 | 0.00 | 0.00 | 0.00 | 38 | 1010.1 |
| 20260505095537 | 14 | 259 | 0.0 | 0.0 | 0.00 | 0.00 | 0.00 | 38 | 1010.0 |
| 20260505095019 | 14 | 259 | 0.0 | 0.0 | 0.00 | 0.00 | 0.00 | 37 | 1010.0 |
| 20260505094557 | 14 | 259 | 0.0 | 0.0 | 0.00 | 0.00 | 0.00 | 38 | 1010.1 |
| 20260505094046 | 14 | 259 | 0.0 | 0.0 | 0.00 | 0.00 | 0.00 | 37 | 1010.1 |
| 20260505093530 | 14 | 259 | 0.0 | 0.0 | 0.00 | 0.00 | 0.00 | 37 | 1010.1 |
| 20260505093015 | 14 | 259 | 0.0 | 0.0 | 0.00 | 0.00 | 0.00 | 37 | 1010.0 |
| 20260505092604 | 14 | 259 | 0.0 | 0.0 | 0.00 | 0.00 | 0.00 | 36 | 1010.0 |
| 20260505092047 | 15 | 259 | 0.0 | 0.0 | 0.00 | 0.00 | 0.00 | 36 | 1010.2 |
| 20260505091536 | 15 | 259 | 0.0 | 0.0 | 0.00 | 0.00 | 0.00 | 36 | 1010.2 |
| 20260505091020 | 15 | 259 | 0.0 | 0.0 | 0.00 | 0.00 | 0.00 | 35 | 1010.1 |
| 20260505090505 | 15 | 259 | 0.0 | 0.0 | 0.00 | 0.00 | 0.00 | 35 | 1010.2 |
| 20260505090054 | 15 | 259 | 0.0 | 0.0 | 0.00 | 0.00 | 0.00 | 35 | 1010.3 |
| 20260505085542 | 15 | 259 | 0.0 | 0.0 | 0.00 | 0.00 | 0.00 | 35 | 1010.5 |
| 20260505085026 | 15 | 258 | 0.0 | 0.0 | 0.00 | 0.00 | 0.00 | 35 | 1010.6 |
| 20260505084511 | 15 | 259 | 0.0 | 0.0 | 0.00 | 0.00 | 0.00 | 34 | 1010.6 |
| 20260505084101 | 15 | 259 | 0.0 | 0.0 | 0.00 | 0.00 | 0.00 | 34 | 1010.7 |
| 20260505083544 | 15 | 259 | 0.0 | 0.0 | 0.00 | 0.00 | 0.00 | 34 | 1010.8 |
| 20260505083029 | 15 | 257 | 0.0 | 0.0 | 0.00 | 0.00 | 0.00 | 34 | 1011.0 |
| 20260505082517 | 15 | 257 | 0.0 | 0.0 | 0.00 | 0.00 | 0.00 | 34 | 1010.9 |
| 20260505082004 | 15 | 259 | 0.0 | 0.0 | 0.00 | 0.00 | 0.00 | 34 | 1010.9 |
| 20260505081553 | 15 | 254 | 0.0 | 0.0 | 0.00 | 0.00 | 0.00 | 34 | 1010.9 |
| 20260505081032 | 15 | 267 | 0.0 | 0.0 | 0.00 | 0.00 | 0.00 | 34 | 1010.9 |
| 20260505080512 | 16 | 267 | 0.0 | 0.0 | 0.00 | 0.00 | 0.00 | 33 | 1010.7 |
| 20260505075546 | 16 | 268 | 0.0 | 0.0 | 0.00 | 0.00 | 0.00 | 33 | 1011.1 |
| 20260505075033 | 16 | 268 | 0.0 | 0.0 | 0.00 | 0.00 | 0.00 | 33 | 1011.1 |
| 20260505074518 | 16 | 270 | 0.0 | 0.0 | 0.00 | 0.00 | 0.00 | 33 | 1011.1 |
| 20260505074006 | 16 | 252 | 0.0 | 0.0 | 0.00 | 0.00 | 0.00 | 33 | 1011.2 |
| 20260505073555 | 16 | 268 | 0.0 | 0.0 | 0.00 | 0.00 | 0.00 | 33 | 1011.0 |
| 20260505073059 | 16 | 186 | 0.0 | 0.0 | 0.00 | 0.00 | 0.00 | 32 | 1010.8 |
| 20260505072527 | 16 | 192 | 0.0 | 0.0 | 0.00 | 0.00 | 0.00 | 32 | 1010.7 |
| 20260505072011 | 16 | 217 | 0.0 | 0.0 | 0.00 | 0.00 | 0.00 | 32 | 1010.7 |
| 20260505071603 | 16 | 198 | 0.0 | 0.0 | 0.00 | 0.00 | 0.00 | 32 | 1010.8 |
| 20260505071043 | 16 | 193 | 0.0 | 0.0 | 0.00 | 0.00 | 0.00 | 32 | 1010.8 |
| 20260505070521 | 16 | 213 | 0.0 | 0.0 | 0.00 | 0.00 | 0.00 | 31 | 1010.8 |
| 20260505070005 | 16 | 207 | 0.0 | 0.0 | 0.00 | 0.00 | 0.00 | 31 | 1010.5 |
| 20260505065557 | 16 | 205 | 0.0 | 0.0 | 0.00 | 0.00 | 0.00 | 31 | 1010.5 |
| 20260505065037 | 17 | 242 | 0.0 | 0.0 | 0.00 | 0.00 | 0.00 | 30 | 1010.5 |
| 20260505064533 | 17 | 271 | 0.0 | 0.0 | 0.00 | 0.00 | 0.00 | 30 | 1010.5 |
| 20260505064003 | 17 | 232 | 0.0 | 0.0 | 0.00 | 0.00 | 0.00 | 30 | 1010.4 |
| 20260505063552 | 17 | 185 | 0.0 | 0.0 | 0.00 | 0.00 | 0.00 | 30 | 1010.4 |
| 20260505063038 | 17 | 210 | 0.0 | 0.0 | 0.00 | 0.00 | 0.00 | 29 | 1010.2 |
| 20260505062522 | 17 | 209 | 0.0 | 0.0 | 0.00 | 0.00 | 0.00 | 29 | 1010.3 |
| 20260505062011 | 17 | 238 | 0.0 | 0.0 | 0.00 | 0.00 | 0.00 | 29 | 1010.6 |
| 20260505061559 | 17 | 194 | 0.0 | 0.0 | 0.00 | 0.00 | 0.00 | 29 | 1010.7 |
| 20260505061036 | 17 | 232 | 0.0 | 0.0 | 0.00 | 0.00 | 0.00 | 28 | 1010.8 |
| 20260505060514 | 17 | 205 | 0.0 | 0.0 | 0.00 | 0.00 | 0.00 | 28 | 1010.6 |
| 20260505060002 | 17 | 231 | 0.0 | 0.0 | 0.00 | 0.00 | 0.00 | 28 | 1010.7 |
| 20260505055548 | 17 | 201 | 0.0 | 0.0 | 0.00 | 0.00 | 0.00 | 28 | 1010.7 |
| 20260505055036 | 17 | 243 | 0.0 | 0.0 | 0.00 | 0.00 | 0.00 | 28 | 1010.7 |
| 20260505054525 | 17 | 234 | 0.0 | 0.0 | 0.00 | 0.00 | 0.00 | 27 | 1010.6 |
| 20260505054007 | 17 | 226 | 0.0 | 0.0 | 0.00 | 0.00 | 0.00 | 27 | 1010.5 |
| 20260505053554 | 17 | 230 | 0.0 | 0.0 | 0.00 | 0.00 | 0.00 | 27 | 1010.5 |
| 20260505053046 | 18 | 237 | 0.0 | 0.0 | 0.00 | 0.00 | 0.00 | 27 | 1010.4 |
| 20260505052526 | 18 | 229 | 0.0 | 0.0 | 0.00 | 0.00 | 0.00 | 27 | 1010.3 |
| 20260505052012 | 18 | 234 | 0.0 | 0.0 | 0.00 | 0.00 | 0.00 | 27 | 1010.3 |
| 20260505051603 | 18 | 234 | 0.0 | 0.0 | 0.00 | 0.00 | 0.00 | 27 | 1010.4 |
| 20260505051048 | 18 | 238 | 0.0 | 0.0 | 0.00 | 0.00 | 0.00 | 27 | 1010.4 |
| 20260505050534 | 18 | 225 | 0.0 | 0.0 | 0.00 | 0.00 | 0.00 | 27 | 1010.4 |
| 20260505041511 | 18 | 254 | 0.0 | 0.0 | 0.00 | 0.00 | 0.00 | 27 | 1010.3 |
| 20260505041052 | 18 | 254 | 0.0 | 0.0 | 0.00 | 0.00 | 0.00 | 27 | 1010.2 |
| 20260505040542 | 19 | 254 | 0.0 | 0.0 | 0.00 | 0.00 | 0.00 | 26 | 1010.2 |
| 20260505040024 | 19 | 254 | 0.0 | 0.0 | 0.00 | 0.00 | 0.00 | 26 | 1010.2 |
| 20260505035511 | 19 | 254 | 0.0 | 0.0 | 0.00 | 0.00 | 0.00 | 26 | 1010.2 |
| 20260505035100 | 19 | 254 | 0.0 | 0.0 | 0.00 | 0.00 | 0.00 | 26 | 1010.3 |
| 20260505034546 | 19 | 263 | 0.0 | 0.0 | 0.00 | 0.00 | 0.00 | 26 | 1010.3 |
| 20260505034033 | 19 | 263 | 0.0 | 0.0 | 0.00 | 0.00 | 0.00 | 26 | 1010.2 |
| 20260505033515 | 19 | 265 | 0.0 | 0.0 | 0.00 | 0.00 | 0.00 | 26 | 1010.1 |
| 20260505033003 | 19 | 264 | 0.0 | 0.0 | 0.00 | 0.00 | 0.00 | 25 | 1009.9 |
| 20260505032549 | 19 | 259 | 0.0 | 0.0 | 0.00 | 0.00 | 0.00 | 25 | 1009.8 |
| 20260505032036 | 20 | 259 | 0.0 | 0.0 | 0.00 | 0.00 | 0.00 | 26 | 1009.8 |
| 20260505031538 | 20 | 259 | 0.0 | 0.0 | 0.00 | 0.00 | 0.00 | 25 | 1009.7 |
| 20260505031009 | 20 | 246 | 0.0 | 0.0 | 0.00 | 0.00 | 0.00 | 25 | 1009.6 |
| 20260505030557 | 20 | 260 | 0.0 | 0.0 | 0.00 | 0.00 | 0.00 | 25 | 1009.6 |
| 20260505030045 | 20 | 233 | 0.0 | 0.0 | 0.00 | 0.00 | 0.00 | 25 | 1009.6 |
| 20260505025529 | 20 | 242 | 0.0 | 0.0 | 0.00 | 0.00 | 0.00 | 25 | 1009.5 |
| 20260505025018 | 20 | 217 | 0.0 | 0.0 | 0.00 | 0.00 | 0.00 | 24 | 1009.5 |
| 20260505024503 | 20 | 243 | 0.0 | 0.0 | 0.00 | 0.00 | 0.00 | 24 | 1009.4 |
| 20260505024047 | 20 | 227 | 0.0 | 0.0 | 0.00 | 0.00 | 0.00 | 24 | 1009.3 |
| 20260505023535 | 20 | 257 | 0.0 | 0.0 | 0.00 | 0.00 | 0.00 | 24 | 1009.2 |
| 20260505023020 | 20 | 271 | 0.0 | 0.0 | 0.00 | 0.00 | 0.00 | 24 | 1009.1 |
| 20260505022505 | 20 | 271 | 0.0 | 0.0 | 0.00 | 0.00 | 0.00 | 23 | 1009.2 |
| 20260505022053 | 20 | 259 | 0.0 | 0.0 | 0.00 | 0.00 | 0.00 | 23 | 1009.2 |
| 20260505021542 | 20 | 241 | 0.0 | 0.0 | 0.00 | 0.00 | 0.00 | 23 | 1009.0 |
| 20260505021028 | 21 | 233 | 0.0 | 0.0 | 0.00 | 0.00 | 0.00 | 23 | 1009.0 |
| 20260505020513 | 21 | 241 | 0.0 | 0.0 | 0.00 | 0.00 | 0.00 | 23 | 1008.9 |
| 20260505015547 | 21 | 248 | 0.0 | 0.0 | 0.00 | 0.00 | 0.00 | 23 | 1008.8 |
| 20260505015032 | 21 | 304 | 0.0 | 0.0 | 0.00 | 0.00 | 0.00 | 23 | 1008.7 |
| 20260505014525 | 21 | 234 | 0.0 | 0.0 | 0.00 | 0.00 | 0.00 | 23 | 1008.7 |
| 20260505014059 | 21 | 281 | 0.0 | 0.0 | 0.00 | 0.00 | 0.00 | 23 | 1008.7 |
| 20260505013540 | 21 | 251 | 0.0 | 0.0 | 0.00 | 0.00 | 0.00 | 23 | 1008.5 |
| 20260505013028 | 21 | 236 | 0.0 | 0.0 | 0.00 | 0.00 | 0.00 | 23 | 1008.3 |
| 20260505012512 | 21 | 240 | 0.0 | 0.0 | 0.00 | 0.00 | 0.00 | 23 | 1008.3 |
| 20260505012101 | 21 | 269 | 0.0 | 0.0 | 0.00 | 0.00 | 0.00 | 23 | 1008.2 |
| 20260505011551 | 21 | 260 | 0.0 | 0.0 | 0.00 | 0.00 | 0.00 | 23 | 1008.3 |
| 20260505011034 | 21 | 259 | 0.0 | 0.0 | 0.00 | 0.00 | 0.00 | 22 | 1008.2 |
| 20260505010518 | 21 | 259 | 0.0 | 0.0 | 0.00 | 0.00 | 0.00 | 22 | 1008.2 |
| 20260505010006 | 21 | 283 | 0.0 | 0.0 | 0.00 | 0.00 | 0.00 | 22 | 1008.2 |
| 20260505005555 | 21 | 276 | 0.0 | 0.0 | 0.00 | 0.00 | 0.00 | 22 | 1008.2 |
| 20260505005040 | 21 | 240 | 0.0 | 0.0 | 0.00 | 0.00 | 0.00 | 22 | 1008.2 |
| 20260505004534 | 21 | 273 | 0.0 | 0.0 | 0.00 | 0.00 | 0.00 | 22 | 1008.2 |
| 20260505004004 | 21 | 268 | 0.0 | 0.0 | 0.00 | 0.00 | 0.00 | 22 | 1008.3 |
| 20260505003552 | 21 | 246 | 0.0 | 0.0 | 0.00 | 0.00 | 0.00 | 21 | 1008.3 |
| 20260505003032 | 22 | 261 | 0.0 | 0.0 | 0.00 | 0.00 | 0.00 | 21 | 1008.4 |
| 20260505002518 | 22 | 267 | 0.0 | 0.0 | 0.00 | 0.00 | 0.00 | 21 | 1008.5 |
| 20260505002104 | 22 | 261 | 0.0 | 0.0 | 0.00 | 0.00 | 0.00 | 21 | 1008.6 |
| 20260505001552 | 22 | 267 | 0.0 | 0.0 | 0.00 | 0.00 | 0.00 | 21 | 1008.6 |
| 20260505001036 | 22 | 261 | 0.0 | 0.0 | 0.00 | 0.00 | 0.00 | 20 | 1008.6 |
| 20260505000520 | 22 | 245 | 1.6 | 0.0 | 0.00 | 0.00 | 0.00 | 20 | 1008.7 |
| 20260505000008 | 22 | 261 | 6.4 | 0.0 | 0.00 | 0.00 | 0.00 | 20 | 1008.7 |
| 20260504235554 | 22 | 234 | 8.0 | 0.0 | 0.00 | 0.00 | 0.00 | 20 | 1008.6 |
| 20260504235039 | 22 | 228 | 8.0 | 0.0 | 0.00 | 0.00 | 0.00 | 19 | 1008.7 |
| 20260504234524 | 22 | 245 | 9.7 | 0.0 | 0.00 | 0.00 | 0.00 | 19 | 1008.7 |
| 20260504234011 | 22 | 232 | 9.7 | 0.0 | 0.00 | 0.00 | 0.00 | 19 | 1008.8 |
| 20260504233600 | 22 | 225 | 8.0 | 0.0 | 0.00 | 0.00 | 0.00 | 19 | 1008.9 |
| 20260504233045 | 22 | 241 | 9.7 | 0.0 | 0.00 | 0.00 | 0.00 | 19 | 1008.9 |
| 20260504232530 | 22 | 238 | 9.7 | 0.0 | 0.00 | 0.00 | 0.00 | 19 | 1008.9 |
| 20260504232009 | 22 | 257 | 9.7 | 0.0 | 0.00 | 0.00 | 0.00 | 19 | 1008.8 |
| 20260504231559 | 22 | 255 | 9.7 | 0.0 | 0.00 | 0.00 | 0.00 | 18 | 1008.8 |
| 20260504231046 | 22 | 302 | 11.3 | 0.0 | 0.00 | 0.00 | 0.00 | 18 | 1008.8 |
| 20260504230531 | 22 | 246 | 12.9 | 0.0 | 0.00 | 0.00 | 0.00 | 18 | 1008.7 |
| 20260504230015 | 22 | 242 | 11.3 | 0.0 | 0.00 | 0.00 | 0.00 | 18 | 1008.7 |
| 20260504225605 | 22 | 264 | 9.7 | 0.0 | 0.00 | 0.00 | 0.00 | 18 | 1008.7 |
| 20260504225051 | 23 | 215 | 8.0 | 0.0 | 0.00 | 0.00 | 0.00 | 18 | 1008.8 |
| 20260504224537 | 23 | 246 | 9.7 | 0.0 | 0.00 | 0.00 | 0.00 | 17 | 1008.7 |
| 20260504224024 | 23 | 278 | 11.3 | 0.0 | 0.00 | 0.00 | 0.00 | 18 | 1008.8 |
| 20260504223509 | 23 | 273 | 11.3 | 0.0 | 0.00 | 0.00 | 0.00 | 17 | 1008.9 |
| 20260504223104 | 23 | 232 | 12.9 | 0.0 | 0.00 | 0.00 | 0.00 | 17 | 1009.2 |
| 20260504222543 | 23 | 259 | 9.7 | 0.0 | 0.00 | 0.00 | 0.00 | 17 | 1009.1 |
| 20260504222027 | 23 | 229 | 8.0 | 0.0 | 0.00 | 0.00 | 0.00 | 17 | 1009.1 |
| 20260504221514 | 23 | 237 | 11.3 | 0.0 | 0.00 | 0.00 | 0.00 | 17 | 1009.1 |
| 20260504221101 | 23 | 213 | 11.3 | 0.0 | 0.00 | 0.00 | 0.00 | 16 | 1009.1 |
| 20260504220546 | 23 | 209 | 8.0 | 0.0 | 0.00 | 0.00 | 0.00 | 17 | 1009.4 |
| 20260504220031 | 23 | 234 | 8.0 | 0.0 | 0.00 | 0.00 | 0.00 | 17 | 1009.4 |
| 20260504215516 | 23 | 221 | 8.0 | 0.0 | 0.00 | 0.00 | 0.00 | 18 | 1009.3 |
| 20260504215104 | 23 | 254 | 9.7 | 0.0 | 0.00 | 0.00 | 0.00 | 17 | 1009.4 |
| 20260504214550 | 23 | 230 | 6.4 | 0.0 | 0.00 | 0.00 | 0.00 | 17 | 1009.6 |